Weather in Abzakovo

Russia / Republic of Bashkortostan     54°34′58″N   59°33′13″E
temp.,
°C
wind,
m/s
gust,
m/s
humid.,
%
clouds,
%
prec.,
mm/h
press.,
hPa
HPBL,
m
28 february, sun
sun2823:00−14se2297100 1.4 1009105
02:00−16se1198100 0.2 100821
05:00−16ene1197100 0.4 100723
08:00−16ne2297100 0.3 100631
11:00−13ne2393100 0.5 1005239
14:00−11ne3492100 0.3 1004305
17:00−11ene3595100 0.6 1005327
20:00−14ne3596100 0.4 1007165
1 march, mon
mon123:00−16ne239798 0.6 100972
02:00−18ne129790 0.1 101122
05:00−18ne119890 0.2 101324
08:00−18ene119896 0.3 101420
11:00−16se119296 0.4 1016213
14:00−13se2291100 0.1 1016262
17:00−12se2293100 0.3 1016203
20:00−16se1197100 0.3 101720
2 march, tue
tue223:00−16wsw119799 0.4 101720
02:00−18w119787 0.0 101720
05:00−19wnw129578 0.0 101620
08:00−21wnw119553 0.0 101620
11:00−14sw128639 0.0 1014183
14:00−10s238831 0.0 1011312
17:00−11s259461 0.0 1010209
20:00−11sw489094 0.0 1009171
3 march, wed
wed323:00−10sw5108997 0.0 1008306
02:00−12sw5889100 0.0 1006252
05:00−13sw51089100 0.0 1005313
08:00−13sw41095100 0.0 1002293
11:00−8ssw51092100 0.0 1001485
14:00−3ssw6989100 0.1 999818
17:00−2ssw5991100 0.1 998625
20:00−5sw4792100 0.1 998135
4 march, thu
thu423:00−7w238999 0.1 99940
02:00−9wnw498597 0.0 1000239
05:00−12wnw248698 0.0 100294
08:00−13w248898 0.0 100499
11:00−8nw6117796 0.0 1005881
14:00−6wnw587428 0.0 10061438
17:00−8wnw597864 0.1 1007913
20:00−14wsw45860 0.0 100968